Oak Harbor, WA

4:03 AM PDT on September 29, 2016 (GMT -0700)
Whidbey Island Naval Air Station

Weather History for KNUW - January, 2014

Change the Weather History Date:

Tuesday, January 14, 2014

  Actual Average Record
Temperature  
Mean Temperature 50 °F -  
Max Temperature 53 °F 44 °F 55 °F (2004)
Min Temperature 46 °F 35 °F 19 °F (2007)
Degree Days  
Heating Degree Days 16    
Moisture  
Dew Point 45 °F    
Average Humidity 82    
Maximum Humidity 86    
Minimum Humidity 74    
Precipitation  
Precipitation 0.00 in - - ()
Sea Level Pressure  
Sea Level Pressure 30.65 in    
Wind  
Wind Speed 5 mph (SE)    
Max Wind Speed 8 mph    
Max Gust Speed -    
Visibility 10 miles    
Events Fog    
Averages and records for this station are not official NWS values.
T = Trace of Precipitation, MM = Missing Value Source: NWS Daily Summary

Daily Weather History Graph

Daily Weather History Graph

Search for Another Location

Airport or City:

Trip Planner

Search our weather history database for the weather conditions in past years. The results will help you decide how hot, cold, wet, or windy it might be!

Date:

Astronomy

Jan. 14, 2014 Rise Set
Actual Time 7:57 AM PST 4:42 PM PST
Civil Twilight 7:21 AM PST 5:18 PM PST
Nautical Twilight 6:42 AM PST 5:56 PM PST
Astronomical Twilight 6:05 AM PST 6:34 PM PST
Moon 3:55 PM PST (1/14) 6:33 AM PST (1/14)
Length of Visible Light 9h 56m
Length of Day
8h 45m
Waxing Gibbous, 98% of the Moon is Illuminated
Jan 14
Waxing Gibbous
Jan 15
Full
Jan 23
Last Quarter
Jan 30
New
Feb 6
First Quarter

Hourly Weather History & Observations

Time (PST) Temp. Windchill Dew Point Humidity Pressure Visibility Wind Dir Wind Speed Gust Speed Precip Events Conditions
12:56 AM 51.1 °F - 46.0 °F 83% 30.64 in 10.0 mi South 4.6 mph - N/A   Overcast
1:56 AM 51.1 °F - 45.0 °F 80% 30.64 in 10.0 mi Variable 5.8 mph - N/A   Overcast
2:56 AM 51.1 °F - 45.0 °F 80% 30.66 in 10.0 mi SSE 5.8 mph - N/A   Overcast
3:56 AM 51.1 °F - 46.0 °F 83% 30.67 in 10.0 mi Calm Calm - N/A   Overcast
4:56 AM 51.1 °F - 45.0 °F 80% 30.68 in 10.0 mi SSE 5.8 mph - N/A   Overcast
5:56 AM 50.0 °F - 45.0 °F 83% 30.68 in 10.0 mi SSE 8.1 mph - N/A   Mostly Cloudy
6:56 AM 48.9 °F - 44.1 °F 83% 30.68 in 8.0 mi SSE 6.9 mph - N/A   Overcast
7:56 AM 48.9 °F - 45.0 °F 86% 30.67 in 9.0 mi SSE 4.6 mph - N/A   Overcast
8:56 AM 50.0 °F - 45.0 °F 83% 30.68 in 10.0 mi ESE 4.6 mph - N/A   Overcast
9:56 AM 51.1 °F - 46.0 °F 83% 30.69 in 10.0 mi SE 6.9 mph - N/A   Overcast
10:56 AM 52.0 °F - 46.0 °F 80% 30.69 in 10.0 mi ESE 5.8 mph - N/A   Overcast
11:56 AM 52.0 °F - 46.0 °F 80% 30.67 in 10.0 mi SE 5.8 mph - N/A   Overcast
12:56 PM 52.0 °F - 45.0 °F 77% 30.67 in 10.0 mi Calm Calm - N/A   Overcast
1:56 PM 52.0 °F - 46.0 °F 80% 30.65 in 10.0 mi Calm Calm - N/A   Overcast
2:56 PM 53.1 °F - 46.0 °F 77% 30.64 in 10.0 mi Calm Calm - N/A   Overcast
3:56 PM 53.1 °F - 45.0 °F 74% 30.64 in 10.0 mi SSE 4.6 mph - N/A   Overcast
4:56 PM 51.1 °F - 45.0 °F 80% 30.65 in 10.0 mi SE 4.6 mph - N/A   Overcast
5:56 PM 48.9 °F - 44.1 °F 83% 30.64 in 10.0 mi SE 5.8 mph - N/A   Mostly Cloudy
6:56 PM 48.9 °F - 44.1 °F 83% 30.63 in 10.0 mi SSE 5.8 mph - N/A   Mostly Cloudy
7:56 PM 48.9 °F - 44.1 °F 83% 30.62 in 10.0 mi SE 3.5 mph - N/A   Mostly Cloudy
8:56 PM 46.9 °F - 42.1 °F 83% 30.60 in 10.0 mi ESE 6.9 mph - N/A   Mostly Cloudy
9:56 PM 46.9 °F - 43.0 °F 86% 30.61 in 10.0 mi SE 8.1 mph - N/A Fog Shallow Fog
10:56 PM 48.0 °F - 44.1 °F 86% 30.61 in 10.0 mi ESE 4.6 mph - N/A   Mostly Cloudy
11:56 PM 46.0 °F 43.1 °F 42.1 °F 86% 30.61 in 0.2 mi ESE 5.8 mph - N/A Fog Fog